| time (UTC) | temp F | wind direction | speed MPH | gust MPH | rain 1hr in | rain 24hr in | rain mn in | humidity % | barometer mb |
| 20260509061041 | 48 | 273 | 0.0 | 0.0 | 0.00 | 0.00 | 0.00 | 78 | 973.6 |
| 20260509060541 | 48 | 273 | 0.0 | 0.0 | 0.00 | 0.00 | 0.00 | 78 | 973.7 |
| 20260509060048 | 48 | 273 | 0.0 | 0.0 | 0.00 | 0.00 | 0.00 | 78 | 973.7 |
| 20260509055540 | 48 | 273 | 0.0 | 0.0 | 0.00 | 0.00 | 0.00 | 78 | 973.7 |
| 20260509055140 | 48 | 273 | 0.0 | 0.0 | 0.00 | 0.00 | 0.00 | 77 | 973.8 |
| 20260509054548 | 48 | 273 | 0.0 | 0.0 | 0.00 | 0.00 | 0.00 | 77 | 973.9 |
| 20260509054043 | 48 | 273 | 0.0 | 0.0 | 0.00 | 0.00 | 0.00 | 77 | 973.9 |
| 20260509053538 | 49 | 273 | 0.0 | 0.0 | 0.00 | 0.00 | 0.00 | 76 | 974.0 |
| 20260509053038 | 49 | 273 | 0.0 | 0.0 | 0.00 | 0.00 | 0.00 | 76 | 974.1 |
| 20260509052536 | 49 | 273 | 0.0 | 2.0 | 0.00 | 0.00 | 0.00 | 75 | 974.1 |
| 20260509052035 | 49 | 273 | 0.0 | 2.0 | 0.00 | 0.00 | 0.00 | 75 | 974.1 |
| 20260509051535 | 49 | 273 | 0.0 | 1.0 | 0.00 | 0.00 | 0.00 | 75 | 974.1 |
| 20260509051134 | 49 | 273 | 0.0 | 1.0 | 0.00 | 0.00 | 0.00 | 75 | 974.0 |
| 20260509050534 | 49 | 273 | 0.0 | 0.0 | 0.00 | 0.00 | 0.00 | 75 | 974.0 |
| 20260509050047 | 50 | 273 | 0.0 | 0.0 | 0.00 | 0.00 | 0.00 | 74 | 974.0 |
| 20260509045533 | 50 | 273 | 0.0 | 0.0 | 0.00 | 0.00 | 0.00 | 74 | 974.0 |
| 20260509045032 | 50 | 273 | 0.0 | 0.0 | 0.00 | 0.00 | 0.00 | 74 | 974.0 |
| 20260509044541 | 50 | 273 | 0.0 | 0.0 | 0.00 | 0.00 | 0.00 | 73 | 974.0 |
| 20260509044030 | 50 | 273 | 0.0 | 0.0 | 0.00 | 0.00 | 0.00 | 73 | 973.9 |
| 20260509043529 | 50 | 273 | 0.0 | 2.0 | 0.00 | 0.00 | 0.00 | 72 | 973.9 |
| 20260509043029 | 50 | 273 | 0.0 | 2.0 | 0.00 | 0.00 | 0.00 | 72 | 973.8 |
| 20260509042530 | 50 | 273 | 0.0 | 2.0 | 0.00 | 0.00 | 0.00 | 72 | 973.8 |
| 20260509042028 | 51 | 273 | 1.0 | 3.0 | 0.00 | 0.00 | 0.00 | 72 | 973.9 |
| 20260509041527 | 51 | 273 | 1.0 | 3.0 | 0.00 | 0.00 | 0.00 | 71 | 973.9 |
| 20260509041026 | 51 | 273 | 1.0 | 3.0 | 0.00 | 0.00 | 0.00 | 71 | 973.8 |
| 20260509040525 | 51 | 273 | 1.0 | 3.0 | 0.00 | 0.00 | 0.00 | 71 | 973.8 |
| 20260509040024 | 51 | 273 | 1.0 | 3.0 | 0.00 | 0.00 | 0.00 | 71 | 973.8 |
| 20260509035524 | 51 | 273 | 0.0 | 2.0 | 0.00 | 0.00 | 0.00 | 71 | 973.9 |
| 20260509035024 | 51 | 273 | 0.0 | 0.0 | 0.00 | 0.00 | 0.00 | 71 | 973.8 |
| 20260509034524 | 51 | 273 | 0.0 | 0.0 | 0.00 | 0.00 | 0.00 | 70 | 973.9 |
| 20260509034023 | 51 | 273 | 0.0 | 0.0 | 0.00 | 0.00 | 0.00 | 69 | 974.1 |
| 20260509033523 | 52 | 273 | 0.0 | 0.0 | 0.00 | 0.00 | 0.00 | 69 | 974.1 |
| 20260509033023 | 52 | 273 | 0.0 | 0.0 | 0.00 | 0.00 | 0.00 | 68 | 974.1 |
| 20260509032525 | 52 | 273 | 0.0 | 0.0 | 0.00 | 0.00 | 0.00 | 68 | 974.2 |
| 20260509032022 | 52 | 273 | 0.0 | 0.0 | 0.00 | 0.00 | 0.00 | 67 | 974.2 |
| 20260509031523 | 52 | 273 | 0.0 | 0.0 | 0.00 | 0.00 | 0.00 | 68 | 974.2 |
| 20260509031023 | 53 | 273 | 0.0 | 0.0 | 0.00 | 0.00 | 0.00 | 68 | 974.2 |
| 20260509030524 | 53 | 273 | 0.0 | 0.0 | 0.00 | 0.00 | 0.00 | 67 | 974.2 |
| 20260509030023 | 53 | 273 | 0.0 | 0.0 | 0.00 | 0.00 | 0.00 | 68 | 974.2 |
| 20260509025523 | 53 | 273 | 0.0 | 0.0 | 0.00 | 0.00 | 0.00 | 67 | 974.3 |
| 20260509025022 | 54 | 273 | 0.0 | 2.0 | 0.00 | 0.00 | 0.00 | 67 | 974.2 |
| 20260509024522 | 54 | 273 | 0.0 | 2.0 | 0.00 | 0.00 | 0.00 | 66 | 974.3 |
| 20260509024022 | 54 | 273 | 1.0 | 2.0 | 0.00 | 0.00 | 0.00 | 65 | 974.3 |
| 20260509023521 | 54 | 273 | 0.0 | 3.0 | 0.00 | 0.00 | 0.00 | 65 | 974.4 |
| 20260509023022 | 55 | 273 | 1.0 | 3.0 | 0.00 | 0.00 | 0.00 | 65 | 974.4 |
| 20260509022522 | 55 | 273 | 1.0 | 2.0 | 0.00 | 0.00 | 0.00 | 65 | 974.4 |
| 20260509022021 | 55 | 273 | 0.0 | 2.0 | 0.00 | 0.00 | 0.00 | 63 | 974.4 |
| 20260509021521 | 55 | 273 | 0.0 | 2.0 | 0.00 | 0.00 | 0.00 | 63 | 974.4 |
| 20260509021021 | 56 | 273 | 0.0 | 2.0 | 0.00 | 0.00 | 0.00 | 62 | 974.3 |
| 20260509020520 | 56 | 273 | 0.0 | 2.0 | 0.00 | 0.00 | 0.00 | 62 | 974.3 |
| 20260509020020 | 57 | 273 | 0.0 | 2.0 | 0.00 | 0.00 | 0.00 | 60 | 974.3 |
| 20260509015520 | 58 | 273 | 0.0 | 2.0 | 0.00 | 0.00 | 0.00 | 59 | 974.3 |
| 20260509015021 | 59 | 273 | 0.0 | 2.0 | 0.00 | 0.00 | 0.00 | 57 | 974.2 |
| 20260509014525 | 60 | 273 | 1.0 | 3.0 | 0.00 | 0.00 | 0.00 | 56 | 974.1 |
| 20260509014020 | 61 | 273 | 1.0 | 4.0 | 0.00 | 0.00 | 0.00 | 53 | 974.1 |
| 20260509013520 | 61 | 22 | 0.0 | 3.0 | 0.00 | 0.00 | 0.00 | 51 | 974.1 |
| 20260509013034 | 60 | 22 | 0.0 | 5.0 | 0.00 | 0.00 | 0.00 | 49 | 974.0 |
| 20260509012520 | 59 | 31 | 1.0 | 6.0 | 0.00 | 0.00 | 0.00 | 51 | 973.9 |
| 20260509012019 | 58 | 89 | 0.0 | 6.0 | 0.00 | 0.00 | 0.00 | 54 | 973.8 |
| 20260509011519 | 58 | 30 | 0.0 | 3.0 | 0.00 | 0.00 | 0.00 | 59 | 973.7 |
| 20260509011019 | 58 | 31 | 0.0 | 2.0 | 0.00 | 0.00 | 0.00 | 58 | 973.7 |
| 20260509010518 | 58 | 31 | 0.0 | 3.0 | 0.00 | 0.00 | 0.00 | 60 | 973.6 |
| 20260509010019 | 59 | 31 | 0.0 | 3.0 | 0.00 | 0.00 | 0.00 | 59 | 973.5 |
| 20260509005519 | 59 | 31 | 0.0 | 1.0 | 0.00 | 0.00 | 0.00 | 58 | 973.5 |
| 20260509005018 | 60 | 31 | 0.0 | 3.0 | 0.00 | 0.00 | 0.00 | 57 | 973.3 |
| 20260509004518 | 60 | 31 | 2.0 | 3.0 | 0.00 | 0.00 | 0.00 | 56 | 973.4 |
| 20260509004018 | 61 | 32 | 1.0 | 3.0 | 0.00 | 0.00 | 0.00 | 56 | 973.4 |
| 20260509003518 | 61 | 32 | 0.0 | 2.0 | 0.00 | 0.00 | 0.00 | 54 | 973.4 |
| 20260509003020 | 62 | 32 | 0.0 | 2.0 | 0.00 | 0.00 | 0.00 | 51 | 973.3 |
| 20260509002517 | 62 | 32 | 0.0 | 2.0 | 0.00 | 0.00 | 0.00 | 51 | 973.3 |
| 20260509002017 | 63 | 32 | 0.0 | 1.0 | 0.00 | 0.00 | 0.00 | 48 | 973.3 |
| 20260509001517 | 63 | 32 | 0.0 | 3.0 | 0.00 | 0.00 | 0.00 | 47 | 973.2 |
| 20260509001017 | 64 | 32 | 0.0 | 3.0 | 0.00 | 0.00 | 0.00 | 46 | 973.2 |
| 20260509000516 | 64 | 32 | 0.0 | 2.0 | 0.00 | 0.00 | 0.00 | 47 | 973.3 |
| 20260509000017 | 65 | 32 | 0.0 | 4.0 | 0.00 | 0.00 | 0.00 | 46 | 973.2 |
| 20260508235517 | 65 | 32 | 1.0 | 4.0 | 0.00 | 0.00 | 0.00 | 45 | 973.2 |
| 20260508235017 | 66 | 31 | 0.0 | 2.0 | 0.00 | 0.00 | 0.00 | 45 | 973.2 |
| 20260508234517 | 67 | 31 | 0.0 | 5.0 | 0.00 | 0.00 | 0.00 | 44 | 973.2 |
| 20260508234017 | 67 | 31 | 1.0 | 5.0 | 0.00 | 0.00 | 0.00 | 43 | 973.1 |
| 20260508233516 | 67 | 28 | 2.0 | 7.0 | 0.00 | 0.00 | 0.00 | 43 | 973.0 |
| 20260508233016 | 67 | 5 | 2.0 | 7.0 | 0.00 | 0.00 | 0.00 | 42 | 973.0 |
| 20260508232515 | 67 | 9 | 1.0 | 6.0 | 0.00 | 0.00 | 0.00 | 42 | 973.0 |
| 20260508232015 | 67 | 13 | 1.0 | 9.0 | 0.00 | 0.00 | 0.00 | 42 | 973.0 |
| 20260508231515 | 68 | 9 | 1.0 | 9.0 | 0.00 | 0.00 | 0.00 | 43 | 972.8 |
| 20260508231015 | 68 | 28 | 0.0 | 6.0 | 0.00 | 0.00 | 0.00 | 44 | 972.7 |
| 20260508230514 | 68 | 87 | 2.0 | 7.0 | 0.00 | 0.00 | 0.00 | 42 | 972.7 |
| 20260508230034 | 69 | 49 | 2.0 | 7.0 | 0.00 | 0.00 | 0.00 | 41 | 972.7 |
| 20260508225515 | 69 | 66 | 2.0 | 6.0 | 0.00 | 0.00 | 0.00 | 41 | 972.6 |
| 20260508225015 | 69 | 47 | 1.0 | 6.0 | 0.00 | 0.00 | 0.00 | 42 | 972.5 |
| 20260508224539 | 69 | 20 | 2.0 | 8.0 | 0.00 | 0.00 | 0.00 | 41 | 972.4 |
| 20260508224014 | 69 | 63 | 1.0 | 8.0 | 0.00 | 0.00 | 0.00 | 42 | 972.3 |
| 20260508223518 | 69 | 360 | 1.0 | 6.0 | 0.00 | 0.00 | 0.00 | 42 | 972.4 |
| 20260508223024 | 70 | 41 | 1.0 | 6.0 | 0.00 | 0.00 | 0.00 | 41 | 972.4 |
| 20260508222515 | 70 | 270 | 2.0 | 6.0 | 0.00 | 0.00 | 0.00 | 40 | 972.4 |
| 20260508222016 | 70 | 81 | 2.0 | 6.0 | 0.00 | 0.00 | 0.00 | 40 | 972.3 |
| 20260508221513 | 70 | 41 | 1.0 | 11.0 | 0.00 | 0.00 | 0.00 | 41 | 972.4 |
| 20260508221017 | 71 | 92 | 3.0 | 11.0 | 0.00 | 0.00 | 0.00 | 39 | 972.4 |
| 20260508220513 | 71 | 60 | 0.0 | 5.0 | 0.00 | 0.00 | 0.00 | 39 | 972.4 |
| 20260508220012 | 71 | 61 | 2.0 | 8.0 | 0.00 | 0.00 | 0.00 | 37 | 972.3 |
| 20260508215512 | 72 | 50 | 1.0 | 6.0 | 0.00 | 0.00 | 0.00 | 35 | 972.4 |
| 20260508215013 | 72 | 253 | 2.0 | 6.0 | 0.00 | 0.00 | 0.00 | 31 | 972.4 |
| 20260508214512 | 73 | 47 | 1.0 | 6.0 | 0.00 | 0.00 | 0.00 | 31 | 972.4 |
| 20260508214014 | 73 | 20 | 3.0 | 7.0 | 0.00 | 0.00 | 0.00 | 32 | 972.5 |
| 20260508213510 | 73 | 30 | 1.0 | 9.0 | 0.00 | 0.00 | 0.00 | 32 | 972.6 |
| 20260508213010 | 72 | 18 | 4.0 | 9.0 | 0.00 | 0.00 | 0.00 | 31 | 972.6 |
| 20260508212510 | 73 | 41 | 0.0 | 6.0 | 0.00 | 0.00 | 0.00 | 33 | 972.6 |
| 20260508212008 | 73 | 42 | 2.0 | 6.0 | 0.00 | 0.00 | 0.00 | 31 | 972.6 |
| 20260508211511 | 73 | 36 | 3.0 | 11.0 | 0.00 | 0.00 | 0.00 | 32 | 972.8 |
| 20260508211008 | 73 | 271 | 2.0 | 11.0 | 0.00 | 0.00 | 0.00 | 32 | 972.9 |
| 20260508210512 | 73 | 18 | 1.0 | 6.0 | 0.00 | 0.00 | 0.00 | 31 | 972.9 |
| 20260508210007 | 73 | 265 | 0.0 | 5.0 | 0.00 | 0.00 | 0.00 | 30 | 972.9 |
| 20260508205508 | 73 | 239 | 1.0 | 9.0 | 0.00 | 0.00 | 0.00 | 31 | 973.0 |
| 20260508205005 | 73 | 15 | 2.0 | 9.0 | 0.00 | 0.00 | 0.00 | 30 | 973.1 |
| 20260508204513 | 73 | 9 | 1.0 | 5.0 | 0.00 | 0.00 | 0.00 | 32 | 973.1 |
| 20260508204004 | 73 | 272 | 1.0 | 11.0 | 0.00 | 0.00 | 0.00 | 33 | 973.2 |
| 20260508203504 | 73 | 13 | 1.0 | 11.0 | 0.00 | 0.00 | 0.00 | 33 | 973.2 |
| 20260508203002 | 73 | 34 | 2.0 | 8.0 | 0.00 | 0.00 | 0.00 | 32 | 973.4 |
| 20260508202502 | 73 | 9 | 1.0 | 9.0 | 0.00 | 0.00 | 0.00 | 32 | 973.5 |
| 20260508202100 | 72 | 44 | 4.0 | 9.0 | 0.00 | 0.00 | 0.00 | 33 | 973.6 |
| 20260508201600 | 72 | 11 | 2.0 | 9.0 | 0.00 | 0.00 | 0.00 | 37 | 973.4 |
| 20260508201058 | 72 | 260 | 1.0 | 9.0 | 0.00 | 0.00 | 0.00 | 38 | 973.6 |
| 20260508200558 | 71 | 80 | 3.0 | 9.0 | 0.00 | 0.00 | 0.00 | 39 | 973.7 |
| 20260508200057 | 71 | 165 | 2.0 | 8.0 | 0.00 | 0.00 | 0.00 | 38 | 973.7 |
| 20260508195557 | 72 | 271 | 3.0 | 8.0 | 0.00 | 0.00 | 0.00 | 37 | 973.8 |
| 20260508195056 | 73 | 360 | 2.0 | 8.0 | 0.00 | 0.00 | 0.00 | 43 | 973.7 |
| 20260508194555 | 72 | 22 | 2.0 | 8.0 | 0.00 | 0.00 | 0.00 | 40 | 973.9 |
| 20260508194057 | 72 | 63 | 3.0 | 8.0 | 0.00 | 0.00 | 0.00 | 38 | 973.9 |
| 20260508193555 | 72 | 275 | 2.0 | 8.0 | 0.00 | 0.00 | 0.00 | 43 | 973.9 |
| 20260508193125 | 71 | 33 | 1.0 | 6.0 | 0.00 | 0.00 | 0.00 | 39 | 973.9 |
| 20260508192555 | 71 | 31 | 2.0 | 6.0 | 0.00 | 0.00 | 0.00 | 37 | 974.0 |
| 20260508192052 | 71 | 270 | 3.0 | 10.0 | 0.00 | 0.00 | 0.00 | 41 | 974.0 |
| 20260508191553 | 71 | 271 | 2.0 | 8.0 | 0.00 | 0.00 | 0.00 | 38 | 974.1 |
| 20260508191050 | 70 | 28 | 3.0 | 6.0 | 0.00 | 0.00 | 0.00 | 41 | 974.2 |
| 20260508190550 | 68 | 215 | 2.0 | 5.0 | 0.00 | 0.00 | 0.00 | 41 | 974.2 |
| 20260508190050 | 68 | 262 | 2.0 | 4.0 | 0.00 | 0.00 | 0.00 | 40 | 974.3 |
| 20260508185552 | 70 | 23 | 1.0 | 8.0 | 0.00 | 0.00 | 0.00 | 38 | 974.4 |
| 20260508185050 | 71 | 22 | 1.0 | 8.0 | 0.00 | 0.00 | 0.00 | 38 | 974.5 |
| 20260508184612 | 70 | 55 | 0.0 | 7.0 | 0.00 | 0.00 | 0.00 | 39 | 974.5 |
| 20260508184050 | 71 | 46 | 1.0 | 9.0 | 0.00 | 0.00 | 0.00 | 37 | 974.6 |
| 20260508183549 | 72 | 27 | 3.0 | 9.0 | 0.00 | 0.00 | 0.00 | 35 | 974.7 |
| 20260508183051 | 72 | 270 | 1.0 | 6.0 | 0.00 | 0.00 | 0.00 | 40 | 974.7 |
| 20260508182548 | 72 | 19 | 2.0 | 6.0 | 0.00 | 0.00 | 0.00 | 42 | 974.7 |
| 20260508182046 | 71 | 271 | 3.0 | 5.0 | 0.00 | 0.00 | 0.00 | 38 | 974.8 |
| 20260508181548 | 70 | 274 | 1.0 | 6.0 | 0.00 | 0.00 | 0.00 | 39 | 974.9 |
| 20260508181048 | 69 | 274 | 2.0 | 6.0 | 0.00 | 0.00 | 0.00 | 39 | 975.0 |
| 20260508180546 | 70 | 270 | 2.0 | 5.0 | 0.00 | 0.00 | 0.00 | 34 | 975.1 |
| 20260508180056 | 70 | 5 | 2.0 | 8.0 | 0.00 | 0.00 | 0.00 | 36 | 975.2 |
| 20260508175545 | 70 | 9 | 4.0 | 9.0 | 0.00 | 0.00 | 0.00 | 36 | 975.3 |
| 20260508175044 | 70 | 19 | 4.0 | 9.0 | 0.00 | 0.00 | 0.00 | 38 | 975.3 |
| 20260508174557 | 69 | 26 | 1.0 | 5.0 | 0.00 | 0.00 | 0.00 | 37 | 975.4 |
| 20260508174043 | 68 | 28 | 1.0 | 6.0 | 0.00 | 0.00 | 0.00 | 40 | 975.5 |
| 20260508173543 | 68 | 28 | 2.0 | 6.0 | 0.00 | 0.00 | 0.00 | 37 | 975.7 |
| 20260508173043 | 68 | 37 | 1.0 | 9.0 | 0.00 | 0.00 | 0.00 | 41 | 975.8 |
| 20260508172542 | 69 | 28 | 3.0 | 10.0 | 0.00 | 0.00 | 0.00 | 38 | 975.8 |
| 20260508172041 | 69 | 25 | 2.0 | 8.0 | 0.00 | 0.00 | 0.00 | 39 | 975.9 |
| 20260508171603 | 69 | 263 | 2.0 | 5.0 | 0.00 | 0.00 | 0.00 | 38 | 976.0 |
| 20260508171040 | 68 | 254 | 2.0 | 6.0 | 0.00 | 0.00 | 0.00 | 38 | 976.1 |
| 20260508170540 | 68 | 15 | 2.0 | 5.0 | 0.00 | 0.00 | 0.00 | 37 | 976.2 |
| 20260508170041 | 68 | 270 | 1.0 | 4.0 | 0.00 | 0.00 | 0.00 | 39 | 976.3 |
| 20260508165539 | 68 | 21 | 1.0 | 3.0 | 0.00 | 0.00 | 0.00 | 41 | 976.4 |
| 20260508165039 | 68 | 22 | 1.0 | 5.0 | 0.00 | 0.00 | 0.00 | 38 | 976.4 |
| 20260508164540 | 67 | 23 | 2.0 | 7.0 | 0.00 | 0.00 | 0.00 | 37 | 976.6 |
| 20260508164039 | 66 | 44 | 2.0 | 9.0 | 0.00 | 0.00 | 0.00 | 39 | 976.6 |
| 20260508163538 | 68 | 5 | 3.0 | 9.0 | 0.00 | 0.00 | 0.00 | 38 | 976.7 |
| 20260508163039 | 67 | 48 | 2.0 | 8.0 | 0.00 | 0.00 | 0.00 | 40 | 976.7 |
| 20260508162536 | 67 | 223 | 1.0 | 6.0 | 0.00 | 0.00 | 0.00 | 39 | 976.7 |
| 20260508162035 | 68 | 205 | 1.0 | 5.0 | 0.00 | 0.00 | 0.00 | 41 | 976.9 |
| 20260508161542 | 67 | 5 | 0.0 | 4.0 | 0.00 | 0.00 | 0.00 | 43 | 977.0 |
| 20260508161035 | 67 | 5 | 2.0 | 8.0 | 0.00 | 0.00 | 0.00 | 38 | 977.0 |
| 20260508160536 | 68 | 18 | 1.0 | 9.0 | 0.00 | 0.00 | 0.00 | 40 | 977.0 |
| 20260508160037 | 67 | 92 | 1.0 | 5.0 | 0.00 | 0.00 | 0.00 | 41 | 977.1 |
| 20260508155533 | 67 | 360 | 0.0 | 6.0 | 0.00 | 0.00 | 0.00 | 42 | 977.2 |
| 20260508155033 | 67 | 14 | 3.0 | 6.0 | 0.00 | 0.00 | 0.00 | 40 | 977.2 |
| 20260508154532 | 66 | 17 | 0.0 | 4.0 | 0.00 | 0.00 | 0.00 | 43 | 977.2 |
| 20260508154030 | 66 | 19 | 2.0 | 8.0 | 0.00 | 0.00 | 0.00 | 43 | 977.2 |
| 20260508153534 | 66 | 11 | 1.0 | 8.0 | 0.00 | 0.00 | 0.00 | 41 | 977.2 |
| 20260508153036 | 66 | 271 | 2.0 | 7.0 | 0.00 | 0.00 | 0.00 | 42 | 977.2 |
| 20260508152529 | 65 | 270 | 1.0 | 8.0 | 0.00 | 0.00 | 0.00 | 44 | 977.2 |
| 20260508152030 | 65 | 9 | 2.0 | 8.0 | 0.00 | 0.00 | 0.00 | 44 | 977.3 |
| 20260508151538 | 65 | 78 | 1.0 | 6.0 | 0.00 | 0.00 | 0.00 | 44 | 977.3 |
| 20260508151030 | 65 | 266 | 2.0 | 6.0 | 0.00 | 0.00 | 0.00 | 44 | 977.3 |
| 20260508150525 | 64 | 5 | 2.0 | 6.0 | 0.00 | 0.00 | 0.00 | 42 | 977.4 |
| 20260508150027 | 64 | 32 | 1.0 | 4.0 | 0.00 | 0.00 | 0.00 | 42 | 977.5 |
| 20260508145525 | 64 | 32 | 0.0 | 8.0 | 0.00 | 0.00 | 0.00 | 42 | 977.5 |
| 20260508145028 | 64 | 32 | 2.0 | 8.0 | 0.00 | 0.00 | 0.00 | 43 | 977.5 |
| 20260508144523 | 64 | 9 | 1.0 | 4.0 | 0.00 | 0.00 | 0.00 | 45 | 977.4 |
| 20260508144023 | 64 | 269 | 1.0 | 6.0 | 0.00 | 0.00 | 0.00 | 46 | 977.5 |
| 20260508143522 | 63 | 254 | 2.0 | 8.0 | 0.00 | 0.00 | 0.00 | 45 | 977.4 |
| 20260508143024 | 63 | 271 | 2.0 | 8.0 | 0.00 | 0.00 | 0.00 | 45 | 977.4 |
| 20260508142523 | 64 | 36 | 2.0 | 6.0 | 0.00 | 0.00 | 0.00 | 45 | 977.4 |
| 20260508142020 | 63 | 41 | 1.0 | 5.0 | 0.00 | 0.00 | 0.00 | 47 | 977.5 |
| 20260508141520 | 63 | 5 | 0.0 | 4.0 | 0.00 | 0.00 | 0.00 | 48 | 977.5 |
| 20260508141018 | 63 | 5 | 2.0 | 4.0 | 0.00 | 0.00 | 0.00 | 46 | 977.5 |
| 20260508140517 | 62 | 5 | 0.0 | 3.0 | 0.00 | 0.00 | 0.00 | 48 | 977.5 |
| 20260508140017 | 62 | 5 | 1.0 | 3.0 | 0.00 | 0.00 | 0.00 | 47 | 977.5 |
| 20260508135516 | 61 | 5 | 1.0 | 5.0 | 0.00 | 0.00 | 0.00 | 45 | 977.5 |
| 20260508135013 | 61 | 5 | 2.0 | 5.0 | 0.00 | 0.00 | 0.00 | 48 | 977.5 |
| 20260508134512 | 60 | 16 | 2.0 | 5.0 | 0.00 | 0.00 | 0.00 | 47 | 977.4 |
| 20260508134012 | 60 | 26 | 0.0 | 3.0 | 0.00 | 0.00 | 0.00 | 48 | 977.4 |
| 20260508133511 | 60 | 24 | 1.0 | 5.0 | 0.00 | 0.00 | 0.00 | 47 | 977.4 |
| 20260508133011 | 59 | 38 | 2.0 | 5.0 | 0.00 | 0.00 | 0.00 | 52 | 977.4 |
| 20260508132509 | 59 | 28 | 1.0 | 4.0 | 0.00 | 0.00 | 0.00 | 54 | 977.5 |
| 20260508132008 | 58 | 25 | 2.0 | 5.0 | 0.00 | 0.00 | 0.00 | 55 | 977.4 |
| 20260508131505 | 57 | 27 | 1.0 | 5.0 | 0.00 | 0.00 | 0.00 | 57 | 977.4 |
| 20260508131004 | 57 | 34 | 2.0 | 6.0 | 0.00 | 0.00 | 0.00 | 58 | 977.5 |
| 20260508130503 | 57 | 12 | 2.0 | 7.0 | 0.00 | 0.00 | 0.00 | 59 | 977.5 |
| 20260508130002 | 57 | 24 | 3.0 | 6.0 | 0.00 | 0.00 | 0.00 | 59 | 977.5 |
| 20260508125502 | 56 | 26 | 2.0 | 6.0 | 0.00 | 0.00 | 0.00 | 60 | 977.5 |
| 20260508125100 | 56 | 28 | 2.0 | 5.0 | 0.00 | 0.00 | 0.00 | 62 | 977.6 |
| 20260508124559 | 55 | 30 | 1.0 | 4.0 | 0.00 | 0.00 | 0.00 | 63 | 977.5 |
| 20260508124059 | 55 | 30 | 1.0 | 6.0 | 0.00 | 0.00 | 0.00 | 64 | 977.5 |
| 20260508123556 | 54 | 32 | 2.0 | 6.0 | 0.00 | 0.00 | 0.00 | 64 | 977.5 |
| 20260508123102 | 54 | 24 | 2.0 | 5.0 | 0.00 | 0.00 | 0.00 | 64 | 977.5 |
| 20260508122554 | 54 | 15 | 1.0 | 6.0 | 0.00 | 0.00 | 0.00 | 66 | 977.5 |
| 20260508122052 | 53 | 271 | 1.0 | 4.0 | 0.00 | 0.00 | 0.00 | 66 | 977.5 |
| 20260508121557 | 53 | 271 | 1.0 | 4.0 | 0.00 | 0.00 | 0.00 | 66 | 977.5 |
| 20260508121049 | 52 | 271 | 1.0 | 3.0 | 0.00 | 0.00 | 0.00 | 67 | 977.4 |
| 20260508120549 | 52 | 271 | 1.0 | 4.0 | 0.00 | 0.00 | 0.00 | 67 | 977.4 |
| 20260508120051 | 52 | 271 | 0.0 | 4.0 | 0.00 | 0.00 | 0.00 | 67 | 977.3 |
| 20260508115546 | 51 | 271 | 1.0 | 4.0 | 0.00 | 0.00 | 0.00 | 66 | 977.4 |
| 20260508115044 | 51 | 271 | 1.0 | 4.0 | 0.00 | 0.00 | 0.00 | 66 | 977.3 |
| 20260508114544 | 51 | 271 | 0.0 | 2.0 | 0.00 | 0.00 | 0.00 | 66 | 977.2 |
| 20260508114042 | 50 | 271 | 0.0 | 3.0 | 0.00 | 0.00 | 0.00 | 65 | 977.2 |
| 20260508113541 | 50 | 271 | 1.0 | 4.0 | 0.00 | 0.00 | 0.00 | 66 | 977.0 |
| 20260508113052 | 50 | 271 | 2.0 | 4.0 | 0.00 | 0.00 | 0.00 | 66 | 977.0 |
| 20260508112540 | 49 | 271 | 0.0 | 4.0 | 0.00 | 0.00 | 0.00 | 66 | 976.9 |
| 20260508112037 | 49 | 271 | 1.0 | 4.0 | 0.00 | 0.00 | 0.00 | 66 | 976.9 |
| 20260508111536 | 49 | 259 | 1.0 | 4.0 | 0.00 | 0.00 | 0.00 | 67 | 976.9 |
| 20260508111036 | 48 | 256 | 0.0 | 3.0 | 0.00 | 0.00 | 0.00 | 67 | 976.8 |
| 20260508110535 | 48 | 256 | 0.0 | 3.0 | 0.00 | 0.00 | 0.00 | 67 | 976.8 |
| 20260508110034 | 48 | 256 | 1.0 | 4.0 | 0.00 | 0.00 | 0.00 | 67 | 976.8 |
| 20260508105534 | 48 | 252 | 0.0 | 4.0 | 0.00 | 0.00 | 0.00 | 67 | 976.7 |
| 20260508105036 | 48 | 247 | 0.0 | 4.0 | 0.00 | 0.00 | 0.00 | 66 | 976.7 |
| 20260508104533 | 48 | 175 | 0.0 | 4.0 | 0.00 | 0.00 | 0.00 | 67 | 976.7 |
| 20260508104032 | 48 | 208 | 1.0 | 4.0 | 0.00 | 0.00 | 0.00 | 67 | 976.5 |
| 20260508103531 | 48 | 236 | 0.0 | 5.0 | 0.00 | 0.00 | 0.00 | 67 | 976.5 |
| 20260508103032 | 48 | 236 | 1.0 | 5.0 | 0.00 | 0.00 | 0.00 | 68 | 976.4 |
| 20260508102530 | 48 | 188 | 1.0 | 6.0 | 0.00 | 0.00 | 0.00 | 69 | 976.3 |
| 20260508102028 | 47 | 234 | 2.0 | 5.0 | 0.00 | 0.00 | 0.00 | 69 | 976.3 |
| 20260508101527 | 47 | 238 | 2.0 | 5.0 | 0.00 | 0.00 | 0.00 | 71 | 976.3 |
| 20260508101026 | 46 | 241 | 1.0 | 5.0 | 0.00 | 0.00 | 0.00 | 72 | 976.2 |
| 20260508100524 | 46 | 240 | 1.0 | 4.0 | 0.00 | 0.00 | 0.00 | 74 | 976.2 |
| 20260508100025 | 45 | 234 | 0.0 | 3.0 | 0.00 | 0.00 | 0.00 | 76 | 976.2 |
| 20260508095525 | 45 | 234 | 1.0 | 3.0 | 0.00 | 0.00 | 0.00 | 77 | 976.2 |
| 20260508095023 | 45 | 234 | 0.0 | 3.0 | 0.00 | 0.00 | 0.00 | 78 | 976.0 |
| 20260508094522 | 44 | 234 | 0.0 | 4.0 | 0.00 | 0.00 | 0.00 | 79 | 975.8 |
| 20260508094021 | 44 | 234 | 0.0 | 5.0 | 0.00 | 0.00 | 0.00 | 81 | 975.9 |
| 20260508093521 | 43 | 227 | 0.0 | 5.0 | 0.00 | 0.00 | 0.00 | 84 | 975.9 |
| 20260508093021 | 42 | 227 | 1.0 | 3.0 | 0.00 | 0.00 | 0.00 | 86 | 975.8 |
| 20260508092521 | 41 | 239 | 0.0 | 3.0 | 0.00 | 0.00 | 0.00 | 86 | 976.0 |
| 20260508092020 | 41 | 239 | 0.0 | 4.0 | 0.00 | 0.00 | 0.00 | 87 | 975.9 |
| 20260508091530 | 40 | 239 | 1.0 | 4.0 | 0.00 | 0.00 | 0.00 | 88 | 975.8 |
| 20260508091019 | 40 | 121 | 1.0 | 3.0 | 0.00 | 0.00 | 0.00 | 87 | 975.7 |
| 20260508090520 | 40 | 119 | 1.0 | 3.0 | 0.00 | 0.00 | 0.00 | 87 | 975.7 |
| 20260508090018 | 40 | 119 | 0.0 | 2.0 | 0.00 | 0.00 | 0.00 | 87 | 975.8 |
| 20260508085516 | 40 | 119 | 0.0 | 0.0 | 0.00 | 0.00 | 0.00 | 87 | 975.8 |
| 20260508085016 | 40 | 119 | 0.0 | 0.0 | 0.00 | 0.00 | 0.00 | 87 | 975.8 |
| 20260508084516 | 40 | 119 | 0.0 | 2.0 | 0.00 | 0.00 | 0.00 | 87 | 975.9 |
| 20260508084022 | 40 | 119 | 0.0 | 2.0 | 0.00 | 0.00 | 0.00 | 87 | 975.9 |
| 20260508083515 | 40 | 119 | 0.0 | 2.0 | 0.00 | 0.00 | 0.00 | 87 | 975.8 |
| 20260508083024 | 40 | 119 | 0.0 | 2.0 | 0.00 | 0.00 | 0.00 | 87 | 975.9 |
| 20260508082515 | 40 | 119 | 0.0 | 0.0 | 0.00 | 0.00 | 0.00 | 87 | 975.8 |
| 20260508082014 | 40 | 119 | 0.0 | 0.0 | 0.00 | 0.00 | 0.00 | 87 | 975.8 |
| 20260508081514 | 40 | 119 | 0.0 | 0.0 | 0.00 | 0.00 | 0.00 | 87 | 975.8 |
| 20260508081013 | 41 | 119 | 0.0 | 0.0 | 0.00 | 0.00 | 0.00 | 87 | 975.9 |
| 20260508080514 | 41 | 119 | 0.0 | 0.0 | 0.00 | 0.00 | 0.00 | 87 | 975.8 |
| 20260508080013 | 41 | 119 | 0.0 | 0.0 | 0.00 | 0.00 | 0.00 | 87 | 975.9 |
| 20260508075513 | 41 | 119 | 0.0 | 0.0 | 0.00 | 0.00 | 0.00 | 86 | 975.9 |
| 20260508075016 | 41 | 119 | 0.0 | 0.0 | 0.00 | 0.00 | 0.00 | 86 | 976.0 |
| 20260508074512 | 41 | 119 | 0.0 | 0.0 | 0.00 | 0.00 | 0.00 | 87 | 975.9 |
| 20260508074011 | 41 | 119 | 0.0 | 0.0 | 0.00 | 0.00 | 0.00 | 87 | 975.8 |
| 20260508073510 | 41 | 119 | 0.0 | 0.0 | 0.00 | 0.00 | 0.00 | 86 | 975.7 |
| 20260508073010 | 41 | 119 | 0.0 | 0.0 | 0.00 | 0.00 | 0.00 | 86 | 975.7 |
| 20260508072513 | 41 | 119 | 0.0 | 0.0 | 0.00 | 0.00 | 0.00 | 86 | 975.7 |
| 20260508072009 | 41 | 119 | 0.0 | 0.0 | 0.00 | 0.00 | 0.00 | 86 | 975.7 |
| 20260508071509 | 41 | 119 | 0.0 | 0.0 | 0.00 | 0.00 | 0.00 | 86 | 975.7 |
| 20260508071008 | 42 | 119 | 0.0 | 0.0 | 0.00 | 0.00 | 0.00 | 86 | 975.8 |
| 20260508070507 | 42 | 119 | 0.0 | 0.0 | 0.00 | 0.00 | 0.00 | 86 | 975.8 |
| 20260508070007 | 42 | 119 | 0.0 | 2.0 | 0.00 | 0.00 | 0.00 | 85 | 975.6 |
| 20260508065510 | 42 | 119 | 0.0 | 2.0 | 0.00 | 0.00 | 0.00 | 85 | 975.6 |
| 20260508065006 | 42 | 119 | 0.0 | 2.0 | 0.00 | 0.00 | 0.00 | 85 | 975.6 |
| 20260508064504 | 43 | 119 | 0.0 | 3.0 | 0.00 | 0.00 | 0.00 | 85 | 975.7 |
| 20260508064003 | 43 | 119 | 1.0 | 3.0 | 0.00 | 0.00 | 0.00 | 85 | 975.6 |
| 20260508063503 | 43 | 119 | 0.0 | 2.0 | 0.00 | 0.00 | 0.00 | 84 | 975.7 |
| 20260508063001 | 43 | 119 | 0.0 | 2.0 | 0.00 | 0.00 | 0.00 | 84 | 975.6 |
| 20260508062603 | 44 | 119 | 1.0 | 2.0 | 0.00 | 0.00 | 0.00 | 84 | 975.6 |
| 20260508062100 | 44 | 119 | 0.0 | 0.0 | 0.00 | 0.00 | 0.00 | 83 | 975.6 |
| 20260508061559 | 44 | 119 | 0.0 | 3.0 | 0.00 | 0.00 | 0.00 | 83 | 975.5 |